Regional Weather Roundup
Issued by NWS

Home | Current Version | Previous Version | Text Only | Print | Product List | Glossary On
Versions: 1 2 3 4 5 6 7 8 9 10 11 12 13 14 15 16 17 18 19 20 21 22 23 24 25 26 27 28 29 30 31 32 33 34 35 36 37 38 39 40 41 42 43 44 45 46 47 48 49 50
000
ASUS45 KSLC 052110
RWRUT

UTAH REGIONAL WEATHER ROUNDUP
NATIONAL WEATHER SERVICE SALT LAKE CITY UT
300 PM MDT SUN JUL 05 2015

UTZ001>011-023>025-052200-

NORTHERN UTAH

CITY           SKY/WX    TMP DP  RH WIND       PRES   REMARKS
BRIGHAM CITY   MOSUNNY   80  58  46 CALM      30.04F
HILL AFB       MOSUNNY   80  57  45 VRB5      30.05F
LOGAN          PTSUNNY   75  61  61 VRB3      30.05F
OGDEN          MOSUNNY   82  55  39 NW6       30.02F
PROVO AIRPORT  NOT AVBL
SALT LAKE CITY MOSUNNY   84  59  42 W9        29.99F
VERNAL         PTSUNNY   78  54  43 S6        30.07F
WENDOVER       MOSUNNY   88  48  25 CALM      29.99F
HEBER CITY     SUNNY     77  55  47 NW3       30.10F
WEST JORDAN    PTSUNNY   84  55  37 CALM      30.03F

$$

UTZ012>022-026-027-052200-

SOUTHERN/CENTRAL UTAH

CITY           SKY/WX    TMP DP  RH WIND       PRES   REMARKS
BLANDING       PTSUNNY   75  60  59 N3        30.21S
BRYCE CANYON   MOSUNNY   75  45  34 W22G36    30.29R
CEDAR CITY     LGT RAIN  74  51  44 SE9       30.14S
DELTA          MOSUNNY   91  37  14 N3        30.01F
HANKSVILLE     SUNNY     86  55  35 E3        30.03F
MILFORD        PTSUNNY   90  42  18 W16       30.04F
MOAB/CYNLANDS  MOSUNNY   81  59  47 CALM      30.03F
PRICE          MOSUNNY   79  55  43 SW6       30.11F
ST GEORGE      CLEAR     99  48  18 SW13G26   29.90F HX  95
KANAB          PTSUNNY   90  46  22 S16G24    30.12F

$$

REGIONAL REPORTS     COLORADO/ARIZONA

CITY           SKY/WX    TMP DP  RH WIND       PRES   REMARKS
CRAIG, CO      CLOUDY    70  56  61 CALM      30.16F
GRAND JUNCTION CLOUDY    81  59  47 W10G17    30.06F
RIFLE          CLOUDY    74  58  57 VRB6      30.10F
MONTROSE       CLOUDY    71  58  63 N6        30.16R
CORTEZ         MOSUNNY   83  52  34 W15G22    30.14F
PAGE, AZ       SUNNY     97  42  15 W8        29.96F HX  93
GRAND CANYON   MOSUNNY   80  45  28 W13       30.21F
KINGMAN        MOSUNNY   96  48  19 SW12G25   29.99F HX  92
FLAGSTAFF      TSTM      61  57  87 CALM      30.29F

$$

REGIONAL REPORTS    NEVADA/IDAHO/WYOMING

CITY           SKY/WX    TMP DP  RH WIND       PRES   REMARKS
LAS VEGAS, NV  CLOUDY    94  49  21 S16G28    29.85R HX  90
ELY            SUNNY     86  33  15 NW15G26   30.15F
ELKO           MOSUNNY   83  50  31 SW14G28   30.09F
POCATELLO, ID  MOSUNNY   84  51  31 SW15G21   30.03F
BURLEY         PTSUNNY   83  56  39 VRB5      29.99F
EVANSTON, WY   PTSUNNY   68  57  68 SW13G20   30.21F
ROCK SPRINGS   RAIN      59  55  87 NW18G25   30.23R
KEMMERER       CLOUDY    63  54  72 W5        30.23F

$$


USA.gov is the U.S. government's official web portal to all federal, state and local government web resources and services.